Regional Weather Roundup
Issued by NWS

Home | Current Version | Previous Version | Graphics & Text | Print | Product List | Glossary On
Versions: 1 2 3 4 5 6 7 8 9 10 11 12 13 14 15 16 17 18 19 20 21 22 23 24 25 26 27 28 29 30 31 32 33 34 35 36 37 38 39 40 41 42 43 44 45 46 47 48 49 50
000
ASUS45 KSLC 262010
RWRUT

UTAH REGIONAL WEATHER ROUNDUP
NATIONAL WEATHER SERVICE SALT LAKE CITY UT
100 PM MST MON JAN 26 2015

UTZ001>011-023>025-262100-

NORTHERN UTAH

CITY           SKY/WX    TMP DP  RH WIND       PRES   REMARKS
BRIGHAM CITY   SUNNY     44  34  66 CALM      30.33F
HILL AFB       SUNNY     47  27  46 NW8       30.30F
LOGAN          SUNNY     39  34  82 W3        30.33F
OGDEN          SUNNY     46  34  62 N8        30.30F
PROVO AIRPORT  NOT AVBL
SALT LAKE CITY SUNNY     49  34  56 NW7       30.31F
VERNAL         SUNNY     44  24  45 CALM      30.41F
WENDOVER       SUNNY     41  30  65 E6        30.32F
HEBER CITY     SUNNY     41  28  60 CALM      30.32F
WEST JORDAN    SUNNY     48  36  61 NW3       30.31F

$$

UTZ012>022-026-027-262100-

SOUTHERN/CENTRAL UTAH

CITY           SKY/WX    TMP DP  RH WIND       PRES   REMARKS
BLANDING       SUNNY     53  26  34 SW5       30.38F
BRYCE CANYON   SUNNY     49  25  39 SE9G17    30.35F
CEDAR CITY     SUNNY     50  32  50 VRB3      30.26F
DELTA          SUNNY     48  33  55 CALM      30.27F
MILFORD        SUNNY     50  35  56 N9        30.27F
MOAB/CYNLANDS  SUNNY     49  28  44 NW7       30.32F
PRICE          SUNNY     54  24  31 SE3       30.32F
ST GEORGE      CLEAR     55  30  38 W3        30.23F
KANAB          MOSUNNY   57  27  30 NE17G25   30.32F

$$

REGIONAL REPORTS     COLORADO/ARIZONA

CITY           SKY/WX    TMP DP  RH WIND       PRES   REMARKS
CRAIG, CO      SUNNY     35  25  66 SW3       30.40F
GRAND JUNCTION SUNNY     52  26  36 S9        30.34F
RIFLE          SUNNY     50  24  36 NE3       30.37F
MONTROSE       SUNNY     52  24  33 NW5       30.37F
CORTEZ         SUNNY     57  26  30 SW9       30.31F
PAGE, AZ       SUNNY     50  25  37 N6        30.31F
GRAND CANYON   PTSUNNY   51  24  34 E13       30.30F
KINGMAN        PTSUNNY   67  24  19 W7        30.18F
FLAGSTAFF      PTSUNNY   50  23  34 NE10      30.30F

$$

REGIONAL REPORTS    NEVADA/IDAHO/WYOMING

CITY           SKY/WX    TMP DP  RH WIND       PRES   REMARKS
LAS VEGAS, NV  PTSUNNY   66  30  26 S5        30.11F
ELY            SUNNY     51  28  41 N7        30.27F
ELKO           SUNNY     52  33  48 E5        30.21F
POCATELLO, ID  MOSUNNY   44  43  96 NE6       30.33F
BURLEY         SUNNY     42  33  70 E13       30.27F
EVANSTON, WY   MOSUNNY   46  32  58 CALM      30.36F
ROCK SPRINGS   SUNNY     49  28  44 N3        30.36F
KEMMERER       SUNNY     43  30  61 NW3       30.36F

$$


USA.gov is the U.S. government's official web portal to all federal, state and local government web resources and services.